Weather reports worldwide

Advertisment
Ross-on-Wye, United Kingdom (99207): temperature & dewpoint: 10.11.2018 10:00:00 - 16.11.2018 10:00:00 (GMT)Ross-on-Wye, United Kingdom (99207): precipitation: 10.11.2018 10:00:00 - 16.11.2018 10:00:00 (GMT)
Date & Time tt [°C] td [°C] rr [mm]
16.11.2018 10:00:00 - - -
16.11.2018 09:00:00 - - -
16.11.2018 08:00:00 - - -
16.11.2018 07:00:00 - - -
16.11.2018 06:00:00 - - -
16.11.2018 05:00:00 - - -
16.11.2018 04:00:00 - - -
16.11.2018 03:00:00 - - -
16.11.2018 02:00:00 - - -
16.11.2018 01:00:00 - - -
16.11.2018 00:00:00 - - -
15.11.2018 23:00:00 12,5 11,5 0,0
15.11.2018 22:00:00 12,3 11,4 0,0
15.11.2018 21:00:00 12,7 11,6 0,0
15.11.2018 20:00:00 12,8 11,5 0,0
15.11.2018 19:00:00 13,0 11,6 0,0
15.11.2018 18:00:00 12,4 10,9 0,0
15.11.2018 17:00:00 12,6 10,8 0,0
15.11.2018 16:00:00 12,7 10,6 0,0
15.11.2018 15:00:00 12,7 10,2 0,0
15.11.2018 14:00:00 12,8 9,3 0,0
15.11.2018 13:00:00 13,4 9,4 0,0
15.11.2018 12:00:00 12,7 9,1 0,0
15.11.2018 11:00:00 11,8 8,6 0,0
15.11.2018 10:00:00 11,8 8,8 0,0
15.11.2018 09:00:00 10,7 8,7 0,0
15.11.2018 08:00:00 9,8 8,8 0,0
15.11.2018 07:00:00 9,7 9,4 0,0
15.11.2018 06:00:00 6,9 6,3 0,0
15.11.2018 05:00:00 8,1 7,4 0,0
15.11.2018 04:00:00 8,5 7,0 0,0
15.11.2018 03:00:00 9,0 7,2 0,0
15.11.2018 02:00:00 9,6 7,3 0,0
15.11.2018 01:00:00 9,9 7,4 0,0
15.11.2018 00:00:00 9,8 7,5 0,0
14.11.2018 23:00:00 9,8 7,5 0,0
14.11.2018 22:00:00 9,4 7,1 0,0
14.11.2018 21:00:00 10,7 7,3 0,0
14.11.2018 20:00:00 11,2 7,1 0,0
14.11.2018 19:00:00 11,2 7,6 0,0
14.11.2018 18:00:00 11,3 7,5 0,0
14.11.2018 17:00:00 11,4 7,5 0,0
14.11.2018 16:00:00 12,4 8,0 0,0
14.11.2018 15:00:00 12,8 8,1 0,0
14.11.2018 14:00:00 13,0 7,8 0,0
14.11.2018 13:00:00 13,3 7,9 0,0
14.11.2018 12:00:00 12,8 7,3 0,0
14.11.2018 11:00:00 13,6 8,0 0,0
14.11.2018 10:00:00 12,9 8,4 0,0
14.11.2018 09:00:00 12,5 8,5 0,0
14.11.2018 08:00:00 11,9 8,4 0,0
14.11.2018 07:00:00 11,8 8,3 0,0
14.11.2018 06:00:00 12,0 8,4 0,0
14.11.2018 05:00:00 12,0 8,3 0,0
14.11.2018 04:00:00 12,0 8,1 0,0
14.11.2018 03:00:00 - - 0,0
14.11.2018 02:00:00 - - 0,2
14.11.2018 01:00:00 - - 0,0
14.11.2018 00:00:00 - - 0,0
13.11.2018 23:00:00 - - 0,0
13.11.2018 22:00:00 - - 0,0
13.11.2018 21:00:00 - - 0,0
13.11.2018 20:00:00 - - 0,0
13.11.2018 19:00:00 - - 0,0
13.11.2018 18:00:00 - - 0,0
13.11.2018 17:00:00 - - 0,0
13.11.2018 16:00:00 - - 0,0
13.11.2018 15:00:00 - - 0,0
13.11.2018 14:00:00 - - 0,0
13.11.2018 13:00:00 - - 0,0
13.11.2018 12:00:00 - - 0,0
13.11.2018 11:00:00 - - 0,0
13.11.2018 10:00:00 - - 0,0
13.11.2018 09:00:00 - - 0,0
13.11.2018 08:00:00 - - 0,0
13.11.2018 07:00:00 - - 0,0
13.11.2018 06:00:00 - - 0,0
13.11.2018 05:00:00 - - 0,0
13.11.2018 04:00:00 - - 0,0
13.11.2018 03:00:00 - - 0,0
13.11.2018 02:00:00 - - 0,0
13.11.2018 01:00:00 - - 0,0
13.11.2018 00:00:00 - - 0,2
12.11.2018 23:00:00 - - 1,2
12.11.2018 22:00:00 - - 0,0
12.11.2018 21:00:00 - - 0,0
12.11.2018 20:00:00 - - 0,0
12.11.2018 19:00:00 - - 0,0
12.11.2018 18:00:00 - - 0,0
12.11.2018 17:00:00 - - 0,0
12.11.2018 16:00:00 - - 0,0
12.11.2018 15:00:00 - - 0,0
12.11.2018 14:00:00 - - 0,0
12.11.2018 13:00:00 - - 0,0
12.11.2018 12:00:00 - - 0,0
12.11.2018 11:00:00 - - 0,0
12.11.2018 10:00:00 - - 0,0
12.11.2018 09:00:00 - - 0,0
12.11.2018 08:00:00 - - 0,0
12.11.2018 07:00:00 - - 0,2
12.11.2018 06:00:00 - - 0,0
12.11.2018 05:00:00 - - 0,0
12.11.2018 04:00:00 - - 0,0
12.11.2018 03:00:00 - - 0,0
12.11.2018 02:00:00 - - 0,0
12.11.2018 01:00:00 - - 0,0
12.11.2018 00:00:00 - - 0,0
11.11.2018 23:00:00 - - 0,0
11.11.2018 22:00:00 - - 0,0
11.11.2018 21:00:00 - - 0,0
11.11.2018 20:00:00 - - -
11.11.2018 19:00:00 - - -
11.11.2018 18:00:00 - - -
11.11.2018 17:00:00 - - -
11.11.2018 16:00:00 - - -
11.11.2018 15:00:00 - - -
11.11.2018 14:00:00 - - -
11.11.2018 13:00:00 - - -
11.11.2018 12:00:00 - - -
11.11.2018 11:00:00 - - -
11.11.2018 10:00:00 - - -
11.11.2018 09:00:00 - - -
11.11.2018 08:00:00 - - -
11.11.2018 07:00:00 - - -
11.11.2018 06:00:00 - - -
11.11.2018 05:00:00 - - -
11.11.2018 04:00:00 - - -
11.11.2018 03:00:00 - - -
11.11.2018 02:00:00 - - 0,0
11.11.2018 01:00:00 - - 0,0
11.11.2018 00:00:00 - - -
10.11.2018 23:00:00 - - -
10.11.2018 22:00:00 - - -
10.11.2018 21:00:00 - - -
10.11.2018 20:00:00 - - -
10.11.2018 19:00:00 - - -
10.11.2018 18:00:00 - - -
10.11.2018 17:00:00 - - -
10.11.2018 16:00:00 - - -
10.11.2018 15:00:00 - - -
10.11.2018 14:00:00 - - -
10.11.2018 13:00:00 - - -
10.11.2018 12:00:00 - - -
10.11.2018 11:00:00 - - -
10.11.2018 10:00:00 - - -

tt = temperature
td = dewpoint
rr = precipitation

Next stations